Cosmos 1066 Rocket - Orbit

View from above orbital plane
View from above orbital plane
View from above satellite
View from above satellite

Ground track
Ground track

The orbit data is extracted from the following two-line orbital elements,

1 11166U 78121B   13139.51335122  .00000079  00000-0  34439-4 0  4665
2 11166 081.2401 201.8078 0066883 182.8881 293.4242 14.13498956773470
Epoch (UTC): 19 May 2013 12:19:13
Eccentricity: 0.0066883
inclination: 81.2401°
perigee height: 799 km
apogee height: 896 km
right ascension of ascending node: 201.8078°
argument of perigee: 182.8881°
revolutions per day: 14.13498956
mean anomaly at epoch: 293.4242°
orbit number at epoch: 77347

The dashed part of the orbit path shows where the satellite is in the earth's shadow,  

Developed and maintained by Chris Peat, Heavens-Above GmbH. Please read the updated FAQ before sending e-mail. Imprint. DLR